Simultaneous Nadir Overpasses (SNOs) Predictions

Prediction of SNOs between NOAA-20 and METOP-B Satellite Orbit:

Table of predicted SNOs for the next 14.0 days since TLE Epoch: 8/26/2022
Index Date (NOAA-20) Time (NOAA-20) Lat,Lon (NOAA-20) SZA (NOAA-20 ) Date (METOP-B) Time (METOP-B) Lat,Lon (METOP-B) SZA (METOP-B ) Distance(km) Time Diff (sec)
1 09/09/2022 00:12:46 -73.57, -13.11 111.69 09/09/2022 00:13:52 -73.54, -10.03 111.85 97.05 66
2 09/09/2022 01:03:28 73.37, 154.65 68.11 09/09/2022 01:04:36 73.33, 156.82 67.97 69.57 68
3 09/09/2022 01:54:10 -73.27, -37.81 111.99 09/09/2022 01:55:20 -73.22, -36.09 112.13 55.48 70
4 09/09/2022 02:44:52 73.07, 129.93 67.81 09/09/2022 02:46:04 73.00, 130.77 67.69 28.44 72
5 09/09/2022 03:35:34 -72.97, -62.54 112.29 09/09/2022 03:36:47 -72.95, -62.03 112.35 17.09 73
6 09/09/2022 04:26:17 72.82, 105.08 67.57 09/09/2022 04:27:29 72.83, 105.06 67.56 0.91 72
7 09/09/2022 05:17:01 -72.83, -87.60 112.42 09/09/2022 05:18:11 -72.82, -87.63 112.44 1.00 70
8 09/09/2022 06:07:47 72.83, 79.70 67.60 09/09/2022 06:08:51 72.80, 79.67 67.56 2.67 64
9 09/09/2022 06:58:31 -72.83,-112.99 112.39 09/09/2022 06:59:32 -72.85,-112.91 112.39 3.15 61
10 09/09/2022 07:49:17 72.83, 54.32 67.63 09/09/2022 07:50:12 72.83, 54.39 67.62 2.24 55
11 09/09/2022 08:40:01 -72.83,-138.37 112.36 09/09/2022 08:40:54 -72.82,-138.30 112.38 2.38 53
12 09/09/2022 09:30:46 72.78, 29.05 67.60 09/09/2022 09:31:34 72.81, 29.00 67.62 3.13 48
13 09/09/2022 10:21:30 -72.79,-163.64 112.39 09/09/2022 10:22:16 -72.80,-163.69 112.38 2.25 46
14 09/09/2022 11:12:16 72.79, 3.66 67.63 09/09/2022 11:12:56 72.78, 3.61 67.62 1.77 40
15 09/09/2022 12:03:00 -72.79, 170.98 112.36 09/09/2022 12:03:38 -72.78, 170.92 112.37 2.25 38
16 09/09/2022 12:53:46 72.79, -21.72 67.66 09/09/2022 12:54:17 72.81, -21.67 67.68 2.76 31
17 09/09/2022 13:44:30 -72.79, 145.59 112.33 09/09/2022 13:44:59 -72.80, 145.64 112.32 1.90 29
18 09/09/2022 14:35:16 72.79, -47.10 67.69 09/09/2022 14:35:39 72.79, -47.06 67.68 1.41 23
19 09/09/2022 15:26:00 -72.80, 120.21 112.30 09/09/2022 15:26:21 -72.78, 120.25 112.32 2.11 21
20 09/09/2022 16:16:45 72.75, -72.38 67.67 09/09/2022 16:17:01 72.76, -72.45 67.68 3.15 16
21 09/09/2022 17:07:29 -72.75, 94.94 112.32 09/09/2022 17:07:43 -72.76, 94.86 112.31 2.67 14
22 09/09/2022 17:58:15 72.75, -97.76 67.70 09/09/2022 17:58:23 72.74, -97.84 67.69 2.97 8
23 09/09/2022 18:48:59 -72.75, 69.55 112.29 09/09/2022 18:49:05 -72.73, 69.47 112.31 3.50 6
24 09/09/2022 19:39:45 72.75,-123.14 67.73 09/09/2022 19:39:44 72.77,-123.12 67.74 1.57 1
25 09/09/2022 20:30:28 -72.75, 44.17 112.26 09/09/2022 20:30:25 -72.76, 44.19 112.26 0.66 3



Historial Predications of SNOs between NOAA-20 and METOP-B
